Flight Track Log - Related Links

Times and Time Zones

All times are in EDT time to prevent confusion due to time zone crossing. See the EJA922 flight status page for this flight to view local times or setup timezone preferences in your user account.

Time Position Orientation Groundspeed Altitude Reporting Facility
EDT Latitude Longitude Course Direction KTS MPH feet Rate Location/Type
06:15PM 40.9167 -74.1167 288° West 257 296 5,100  Level New York TRACON
06:16PM 40.9167 -74.2167 270° West 291 335 7,900 1,550 Climbing New York TRACON
06:17PM 40.9333 -74.3167 282° West 285 328 8,200 1,048 Climbing New York TRACON
06:18PM 41.0167 -74.3667 336° Northwest 326 375 10,100 1,850 Climbing New York TRACON
06:19PM 41.0994 -74.4028 342° North 350 403 11,900 1,043 Climbing New York Center
06:20PM 41.1894 -74.4600 334° Northwest 379 436 12,100 46 Climbing New York Center
06:21PM 41.3181 -74.5361 336° Northwest 394 453 12,000 -46 Descending New York Center
06:22PM 41.4036 -74.5964 332° Northwest 394 453 12,000 100 Level New York Center
06:23PM 41.4744 -74.7222 307° West 382 440 12,200 1,000 Climbing New York Center
06:24PM 41.5292 -74.8333 303° West 398 458 14,000 2,050 Climbing New York Center
06:25PM 41.5992 -74.9764 303° West 417 480 16,300 2,450 Climbing New York Center
06:26PM 41.6475 -75.0764 303° West 417 480 18,900 1,835 Climbing New York Center
06:27PM 41.7153 -75.2142 303° West 412 474 20,000 545 Climbing New York Center
06:28PM 41.7853 -75.3442 306° West 418 481 20,000 857 Level New York Center
06:29PM 41.8856 -75.4431 324° Northwest 431 496 21,700 1,513 Climbing New York Center
06:30PM 41.9794 -75.5417 322° Northwest 431 496 23,000 645 Climbing New York Center
06:31PM 42.0511 -75.6725 306° West 436 502 23,000  Level New York Center
06:32PM 42.1111 -75.8306 297° West 450 518 23,000  Level New York Center
06:33PM 42.1736 -75.9753 300° West 456 525 23,000 -100 Level New York Center
06:34PM 42.2403 -76.1178 302° West 456 525 22,800 -1,100 Descending New York Center
06:35PM 42.3111 -76.2497 306° West 451 519 20,800 -2,025 Descending New York Center
06:37PM 42.4414 -76.4778 308° West 437 503 17,300 -1,778 Descending Cleveland Center
06:38PM 42.4897 -76.6097 296° West 396 456 16,000 -650 Descending Cleveland Center
06:39PM 42.5033 -76.7611 277° West 396 456 16,000  Level Cleveland Center
06:40PM 42.5208 -76.9178 279° West 409 471 16,000  Level Cleveland Center
06:41PM 42.5689 -77.0533 296° West 397 457 16,000 -111 Level Cleveland Center
06:41PM 42.6400 -77.1311 321° Northwest 403 464 15,800 -1,250 Descending Cleveland Center
06:43PM 42.7369 -77.2417 320° Northwest 391 450 13,500 -1,955 Descending Cleveland Center
06:44PM 42.8189 -77.3336 321° Northwest 391 450 11,500 -1,700 Descending Cleveland Center
06:45PM 42.8617 -77.4447 298° West 337 388 10,100 -1,550 Descending Cleveland Center
06:46PM 42.8956 -77.5422 295° West 314 361 8,400 -1,835 Descending Cleveland Center
06:47PM 42.9247 -77.6314 294° West 284 327 6,400 -1,950 Descending Cleveland Center
06:48PM 42.9539 -77.7094 297° West 261 300 4,500 -1,714 Descending Cleveland Center
06:49PM 43.0131 -77.7439 337° Northwest 232 267 3,000 -1,339 Descending Cleveland Center
06:50PM 43.0625 -77.7217 18° North 184 212 1,800 -1,050 Descending Cleveland Center
06:51PM 43.0953 -77.6972 29° Northeast 151 174 900 -915 Descending Cleveland Center
06:53PM 43.1167 -77.6667 14° North  Level FlightAware Approximate

Login

Don't have an account? Register now (free) for customized features, flight alerts, and more!